Regional Weather Roundup
Issued by NWS Upton, NY

Current Version | Previous Version | Graphics & Text | Print | Product List | Glossary Off
Versions: 1 2 3 4 5 6 7 8 9 10 11 12 13 14 15 16 17 18 19 20 21 22 23 24 25 26 27

000
ASUS41 KOKX 231905
RWROKX

Regional Weather Roundup
National Weather Service New York NY
300 PM EDT MON APR 23 2018

Note: "FAIR" indicates few or no clouds below 12,000 feet with no
significant weather and/or obstructions to visibility.

NYZ071-072-176-178-NJZ106-104-232000-
New York City Metro Area

CITY           SKY/WX    TMP DP  RH WIND       PRES   REMARKS
Central Park   FAIR      65  27  23 VRB5      30.46F
Bronx Bot Gard   N/A     63  21  20 E3        30.44
Bronx Lehman C   N/A     63  18  17 S3          N/A
LaGuardia Arpt FAIR      62  30  29 NE10      30.44F
Queens College   N/A     63  32  31 SE12        N/A
Kennedy Intl   FAIR      56  36  47 SE17      30.47F
Breezy Point     N/A     48 N/A N/A SE12        N/A
Brooklyn Coll    N/A     55  34  44 SE12        N/A
Staten Island    N/A     55  34  44 SE13        N/A
Newark/Liberty FAIR      61  34  36 SE9G16    30.44F
Teterboro      FAIR      66  25  21 NW8       30.42F
$$

NYZ177-179-078>081-232000-
Long Island New York

CITY           SKY/WX    TMP DP  RH WIND       PRES   REMARKS
Jones Beach      N/A     48 N/A N/A SE10        N/A
Wantagh          N/A     54  37  54 SE13        N/A
Hempstead        N/A     57  36  44 SE12      30.48
Matinecock Pt    N/A     50 N/A N/A NE13        N/A
Farmingdale    FAIR      57  31  37 SE12      30.46F
MacArthur/ISP  FAIR      58  22  24 SE12      30.46F
Stony Brook      N/A     63  25  23 S10G25      N/A
Shirley        FAIR      57  21  24 SE14      30.48S
Mt Sinai Harb    N/A     59 N/A N/A NE2         N/A
Westhampton    FAIR      56  18  22 E10       30.49F
East Hampton   FAIR      53  26  34 S8        30.47F
Southold         N/A     57  28  33 S12         N/A
Montauk          N/A     56  33  42 S6        30.48F
$$

NYZ052-065-067-232000-
Hudson Valley

CITY           SKY/WX    TMP DP  RH WIND       PRES   REMARKS
White Plains   FAIR      61  22  22 SE8       30.43F
Larchmont Harb   N/A     48 N/A N/A NE13        N/A
Croton On Huds   N/A     63 N/A N/A SE7         N/A
Somers           N/A     64  27  24 SE9         N/A
Brewster         N/A     64  23  20 S6          N/A
Newburgh       SUNNY     64  18  16 CALM      30.42F
Montgomery     FAIR      67  17  14 VRB3      30.38F
Otisville        N/A     64  23  20 S10         N/A
Warwick          N/A     66  23  19 SE5         N/A
Suffern          N/A     64  21  19 S5          N/A
Poughkeepsie   FAIR      67  21  17 N5        30.39F
Albany         FAIR      66  13  12 SE5       30.39F
$$

NJZ001-105-106-008-010-013-015-019>022-104-232000-
New Jersey

CITY           SKY/WX    TMP DP  RH WIND       PRES   REMARKS
Newark/Liberty FAIR      61  34  36 SE9G16    30.44F
Teterboro      FAIR      66  25  21 NW8       30.42F
Caldwell       FAIR      66  22  18 S5        30.42F
Somerville     FAIR      68  31  25 SE6       30.41F
Linden         NOT AVBL
Perth Amboy      N/A     54 N/A N/A E13         N/A
Sussex         FAIR      69  28  21 VRB7      30.39F
Andover          N/A     67  18  15 SE7       30.39F
Trenton        FAIR      68  27  21 VRB3      30.41F
Millville      FAIR      64  26  23 S10G16    30.44F
Atlantic City  FAIR      63  25  23 S17G24    30.45S
Wrightstown    NOT AVBL
Toms River     FAIR      61  38  42 E10       30.46
Belmar         FAIR      57  39  51 E8        30.47F
$$

PAZ047>061-062-071-232000-
Eastern Pennsylvania

CITY           SKY/WX    TMP DP  RH WIND       PRES   REMARKS
Philadelphia   FAIR      68  30  24 S7        30.41F
Allentown      FAIR      70  26  19 SE7       30.40F
Scranton       FAIR      69  20  15 SW7G18    30.35F
$$

CTZ002-004>006-009-010-012-RIZ004-006-007-MAZ004-011-015-232000-
Southern New England

 In CT

CITY           SKY/WX    TMP DP  RH WIND       PRES   REMARKS
Bradley Intl   FAIR      65  14  14 CALM      30.41F
Hartford       FAIR      66  19  16 CALM      30.42F
Danbury        FAIR      63  21  20 S7        30.43F
Wtrbury/Oxford FAIR      64  24  21 S10       30.43F
Norwalk Harbor   N/A     50 N/A N/A E13         N/A
Bridgeport     FAIR      60  29  30 SE12      30.45F
Meriden        FAIR      65  23  20 S13       30.42F
New Haven      FAIR      59  27  29 SE13      30.46F
Chester        FAIR      63  19  19 S8G16     30.44F
Groton         FAIR      52  38  58 S10       30.46F
Willimantic    FAIR      66  16  14 VRB5      30.41F

 In RI

CITY           SKY/WX    TMP DP  RH WIND       PRES   REMARKS
Providence     FAIR      65  21  18 S9        30.44F
Block Island   FAIR      51  36  56 S13       30.48S
Westerly       FAIR      55  31  39 S12       30.47F

In MA

CITY           SKY/WX    TMP DP  RH WIND       PRES   REMARKS
Boston         FAIR      54  28  36 E15       30.45F
Worcester      FAIR      61  17  18 S5        30.42F
Westfield      FAIR      66  10  11 NE3       30.40F
Provincetown   FAIR      53  23  31 NE9       30.48F
Nantucket      FAIR      58  18  21 NE10G18   30.46F
$$

ANZ330-335-338-340-345-350-353-355-232000-
Coastal Marine Observations


STATION/POSITION TIME  SKY/WX   TEMP    WIND        PRES    VSBY  WAVE
                                AIR SEA DIR/SP/G                  HT/PER
                 (UTC)          (F)     (DEG/KT/KT) (MB)    (MI)  (FT/S)
NY Harb Entrance 1850            47 47  110/  8/ 10 1031.8          1/12
20 S Fire Island 1850            47 47  140/  4/  6 1032.1          1/15
23 SSW Montauk P 1850            47 47  140/  4/  6 1032.4          1/12
15 E Barnegat Li 1830               49                N/A           1/15
Hudson Canyon    1850            54 48   CALM  /  2 1031.8          1/15
Kings Point      1848            57 46   60/  6/  8 1031.9
Execution Rocks  NOT AVBL
Western LI Sound NOT AVBL
Central LI Sound 1830            50     170/  8/ 10   N/A           0
Robbins Reef     1848            50     180/ 20/ 21 1032.0
$$


>>>>>>>>>>>>>>>>>>>>>>>>>>>> KEY <<<<<<<<<<<<<<<<<<<<<<<<<<<
>                                                          <
>     SKY/WX - Sky Condition/Present Weather               <
>     TMP    - Temperature in Fahrenheit                   <
>     DP     - Dew Point in Fahrenheit                     <
>     RH     - Relative Humidity in Percent                <
>     WIND   - Direction (from) and Speed in MPH           <
>     PRES   - Mean Sea Level Pressure (inches of Hg)      <
>     WCI    - Wind Chill Index                            <
>     VSB    - Visibility in Miles                         <
>     HX     - Heat Index                                  <
>     TC     - Temperature in Celsius                      <
>     VRB    - Varibale Wind Direction                     <
>                                                          <
>>>>>>>>>>>>>>>>>>>>>>>>>>>> KEY <<<<<<<<<<<<<<<<<<<<<<<<<<<




USA.gov is the U.S. government's official web portal to all federal, state and local government web resources and services.